Location: Newark
(53.3333°N, 83.7500°E)
Time: 21:26:39
(UTC+00:00)

Vanguard 2 - Pass Details

Date: 26 November 2019
Orbit: 553 x 2938 km, 32.9° (Epoch: 07 December)

Event Time Altitude Azimuth Distance (km) Brightness Sun altitude
Rises 00:00:09 0° 216° (SW) 6,569 12.0 -18.3°
Reaches altitude 10° 00:06:30 10° 203° (SSW) 5,252 11.6 -17.4°
Maximum altitude 00:15:36 20° 165° (SSE) 3,871 11.4 -16.1°
Drops below altitude 10° 00:22:41 10° 124° (SE) 3,972 12.3 -15.0°
Sets 00:26:31 0° 108° (ESE) 4,564 13.5 -14.5°
